Retour au catalogue

STARLINK-4414

ActifCommunicationsSSO
NORAD 53213·PAYLOAD·🇺🇸 United States

Lancé Jul 22, 2022 depuis Vandenberg Space Force Base

Loading…

Prochains Passages (prochaines 24 heures)

TLE

FraisSource: CelesTrak SupGP

Époque: Sep 15, 2026, 02:20 UTC

1 53213C 22084AA  26258.09770833  .00058379  00000+0  18120-2 0  2583
2 53213  97.2840 313.0390 0001685  89.7525  65.2285 15.33413352    10

Suivez STARLINK-4414 en temps réel avec AllMySat

Download on the App Store